{"data":{"norad_id":35696,"epoch":"2026-09-20T00:17:31.698816Z","epoch_age_seconds":60307,"freshness":"FRESH","line1":"1 35696U 09042A   26263.01217244 -.00000311  00000+0  00000+0 0  9998","line2":"2 35696   0.0094  63.4133 0001720 127.5604 272.8618  1.00270776 62674","mean_motion":1.00270776,"eccentricity":0.000172,"inclination_deg":0.0094,"raan_deg":63.4133,"arg_perigee_deg":127.5604,"mean_anomaly_deg":272.8618,"bstar":0,"rev_number":6267,"period_min":1436.1113551171,"perigee_km":35779.625440341,"apogee_km":35794.13020544,"semimajor_km":42165.01482289,"source":"CELESTRAK","updated_at":"2026-09-20T09:00:35.158710Z"}}